Location: Unspecified
(49.2170°N, 0.0000°E)
Time: 06:55:10
(UTC+00:00)

Explorer 7 - Pass Details

Date: 28 January 2021
Orbit: 484 x 677 km, 50.3° (Epoch: 04 March)

Event Time Altitude Azimuth Distance (km) Brightness Sun altitude
Exits shadow 04:52:24 42° 77° (ENE) 749 7.9 -26.7°
Drops below altitude 10° 04:55:08 10° 77° (ENE) 1,772 10.4 -26.3°
Sets 04:57:25 0° 78° (ENE) 2,694 11.6 -25.9°
